Regional Weather Roundup
Issued by NWS Charleston, SC

Home | Current Version | Previous Version | Text Only | Print | Product List | Glossary On
Versions: 1 2 3 4 5 6 7 8 9 10 11 12 13 14 15 16 17 18 19 20 21 22 23 24 25 26 27 28 29 30 31 32 33 34 35 36 37 38 39 40 41 42 43 44 45 46 47 48 49 50
000
ASUS42 KCHS 070626
RWRCHS

REGIONAL WEATHER ROUNDUP
NATIONAL WEATHER SERVICE CHARLESTON SC
200 AM EDT THU MAY 07 2015

NOTE: "FAIR" INDICATES FEW OR NO CLOUDS BELOW 12,000 FEET WITH NO
SIGNIFICANT WEATHER AND/OR OBSTRUCTIONS TO VISIBILITY.

NOT ALL STATIONS ARE QUALITY CONTROLLED BY THE NATIONAL
WEATHER SERVICE. USE DATA WITH CAUTION...ESPECIALLY
DEWPOINT OBSERVATIONS.

SCZ027-030-031-034>040-042>050-070700-
...SOUTHEAST SOUTH CAROLINA...

CITY           SKY/WX    TMP DP  RH WIND       PRES   REMARKS
N CHARLESTON   PTCLDY    62  56  80 NE7       30.05F
6HR MIN TEMP:  62; 6HR MAX TEMP:  72;

WATERFRONT PRK NOT AVBL
MOUNT PLEASANT FAIR      66  57  72 MISG      30.04F
PINOPOLIS      NOT AVBL
MONCKS CORNER  FAIR      64  55  72 NE8       30.06F
SUMMERVILLE    FAIR      59  59 100 CALM      30.07F
BEAUFORT MCAS  PTCLDY    64  57  78 N7        30.06F
6HR MIN TEMP:  63; 6HR MAX TEMP:  72;

BEAUFORT ARPT  FAIR      64  59  82 N8        30.04F
HILTON HEAD IS PTCLDY    66  59  77 N8        30.05F
WALTERBORO     MOCLDY    57  55  94 N3        30.07F
ALLENDALE      FAIR      59  57  94 CALM      30.07F

...SOUTHERN MIDLANDS AND PEE DEE...

CITY           SKY/WX    TMP DP  RH WIND       PRES   REMARKS
GEORGETOWN     NOT AVBL
KINGSTREE      NOT AVBL
ORANGEBURG     MOCLDY    58  55  90 CALM      30.09F
6HR MIN TEMP:  58; 6HR MAX TEMP:  71;

BARNWELL       FAIR      57  55  94 CALM      30.09F
AIKEN          FAIR      57  52  82 CALM      30.13F
MANNING        FAIR      55  52  88 N3        30.08F
COLUMBIA       PTCLDY    58  51  78 W3        30.10F
6HR MIN TEMP:  58; 6HR MAX TEMP:  76;

SUMTER         MOCLDY    58  53  83 NE5       30.09F
6HR MIN TEMP:  58; 6HR MAX TEMP:  74;

FLORENCE       MOCLDY    62  56  80 NE8       30.10F
6HR MIN TEMP:  61; 6HR MAX TEMP:  74;

MYRTLE BEACH   CLOUDY    66  55  68 N13       30.08F
N MYRTLE BEACH CLOUDY    65  58  78 N8        30.07F
6HR MIN TEMP:  65; 6HR MAX TEMP:  70;


$$

GAZ063-065-086>088-099>101-113>116-118-119-134>141-150-070700-
...SOUTHEAST GEORGIA...

CITY           SKY/WX    TMP DP  RH WIND       PRES   REMARKS
SAVANNAH ARPT  PTCLDY    62  59  90 N3        30.07F
6HR MIN TEMP:  61; 6HR MAX TEMP:  72;

HUNTER AAF     PTCLDY    65  62  90 N2        30.04F
6HR MIN TEMP:  62; 6HR MAX TEMP:  71;

FORT STEWART   CLEAR     59  57  93 CALM      30.05F
6HR MIN TEMP:  59; 6HR MAX TEMP:  71;

STATESBORO       N/A     57  57 100 CALM      30.07F
SYLVANIA       PTCLDY    58  58 100 CALM      30.09F
CLAXTON        FAIR      57  57 100 CALM      30.07F

...CSRA...CENTRAL AND FAR SOUTHEAST GEORGIA...

CITY           SKY/WX    TMP DP  RH WIND       PRES   REMARKS
THOMSON        CLEAR     56  56 100 CALM      30.14F
AUGUSTA-BUSH   PTCLDY    55  54  96 CALM      30.09F
6HR MIN TEMP:  55; 6HR MAX TEMP:  72;

AUGUSTA-DANIEL PTCLDY    67  56  67 N8        30.10F
SWAINSBORO     FAIR      55  55 100 CALM      30.09F
VIDALIA        CLEAR     59  59 100 CALM      30.07F
EASTMAN        FAIR      56  56 100 CALM      30.11F FOG
HAZLEHURST     FAIR      62  62 100 CALM      30.07F FOG
ALMA           CLEAR     59  58  96 CALM      30.07F FOG
6HR MIN TEMP:  58; 6HR MAX TEMP:  74;

WAYCROSS       CLEAR     62  61  99 CALM      30.06F
JESUP          FAIR      61  59  94 CALM      30.07F
BAXLEY         FAIR      61  61 100 CALM      30.07F
BRUNSWICK      CLEAR     61  59  94 NW5       30.06F
SAINT SIMONS   CLEAR     64  61  90 N5        30.05F
6HR MIN TEMP:  64; 6HR MAX TEMP:  71;


$$

SCZ027-028-034-036>038-045-046-048>050-GAZ119-141-070700-
...LAKE AND SUPPLEMENTAL COASTAL OBSERVATIONS...

STATION/POSITION TIME  TEMP    WIND        PRES    WAVE   SWELL
                       AIR SEA DIR/SP/G            HT/PER HT/PER/DIR
                 (UTC) (F)     (DEG/KT/KT) (MB)    (FT/S) (FT/S/D)
UPR LAKE MARION  NOT AVBL
WINYAH BAY       0500   67      10/  7     1017.0
LAKE MURRAY      0500   65      CALM  /  1 1019.3F
ACE BASIN NERRS  NOT AVBL
FORT PULASKI     0500   68 72  320/  6/  7 1018.8F
SAPELO ISLAND    0600   67     320/  5     1018.0S

$$

ANZ835-935-AMZ111-154-330-350-352-354-370-450-454-472-070700-
...C-MAN AND BUOY OBSERVATIONS...

STATION/POSITION TIME  TEMP    WIND        PRES    WAVE   SWELL
                       AIR SEA DIR/SP/G            HT/PER HT/PER/DIR
                 (UTC) (F)     (DEG/KT/KT) (MB)    (FT/S) (FT/S/D)
BUOY 41004       0550   69 73   10/ 23/ 27 1014.9F  10/10   8/10
BUOY 41008       0550   70 70   20/ 16/ 17 1017.2F   6/10   5/ 90/10
FOLLY BEACH CMAN 0600   68      20/ 14/ 17 1017.3F
CAPERS NEARSHORE 0508   69      30/ 17/ 23 1017.8F
FRIPP NEARSHORE  0500   69      40/ 16/ 19 1017.5F


STATION/POSITION TIME  TEMP    WIND        PRES    WAVE   SWELL
                       AIR SEA DIR/SP/G            HT/PER HT/PER/DIR
                 (UTC) (F)     (DEG/KT/KT) (MB)    (FT/S) (FT/S/D)
5E ST. MARYS GA  0521      71                N/A     5/ 9   2/110/11
FRYING PAN BUOY  0550   71 72   50/ 19/ 25 1016.4F   8/ 8
BUOY 41025       0550   72 75   80/ 14/ 17 1019.5F   6/ 8   3/130/ 8
CAPE LOOKOUT NC  0600   69      60/ 13/ 14 1018.6F
BUOY 41002       0550   70 72  120/ 17/ 21 1014.9F   7/ 8
BUOY 41010       0520   76 77  300/ 19/ 21 1013.6F
ST AUGUSTINE FL  0600   66 73  290/  6/  7 1017.9F


$$



USA.gov is the U.S. government's official web portal to all federal, state and local government web resources and services.